Regional Weather Roundup
Issued by NWS

Home | Current Version | Previous Version | Graphics & Text | Print | Product List | Glossary On
Versions: 1 2 3 4 5 6 7 8 9 10 11 12 13 14 15 16 17 18 19 20 21 22 23 24 25 26 27 28 29 30 31 32 33 34 35 36 37 38 39 40 41 42 43 44 45 46 47 48 49 50
000
ASUS43 KTOP 250108
RWRKS

WEATHER ROUNDUP FOR KANSAS
NATIONAL WEATHER SERVICE GOODLAND KS
800 PM CDT MON APR 24 2017

NOTE:  "FAIR" INDICATES FEW OR NO CLOUDS BELOW 12,000 FEET WITH NO
SIGNIFICANT WEATHER AND/OR OBSTRUCTIONS TO VISIBILITY.

KSZ001>006-013>018-027>032-041>047-250200-
NORTHWEST KANSAS

CITY           SKY/WX    TMP DP  RH WIND       PRES   REMARKS
GOODLAND       CLOUDY    67  43  41 E8        29.51F
HAYS           CLOUDY    71  49  45 E7        29.48F
HILL CITY      PTCLDY    70  47  43 NE9       29.49F
RUSSELL        CLOUDY    71  49  45 SE7       29.48F
$$

KSZ061>065-074>080-084>089-250200-
SOUTHWEST KANSAS

CITY           SKY/WX    TMP DP  RH WIND       PRES   REMARKS
DODGE CITY     CLOUDY    71  50  47 SE12      29.50F
ELKHART          N/A     72  41  32 E16         N/A
GARDEN CITY    CLOUDY    72  43  35 E10       29.48F
GREAT BEND     CLOUDY    71  52  50 S14       29.50S
PRATT          CLOUDY    68  49  50 S15       29.51F
$$

KSZ066>073-081>083-090>101-250200-
SOUTHEAST KANSAS

CITY           SKY/WX    TMP DP  RH WIND       PRES   REMARKS
CHANUTE        CLOUDY    64  48  56 SE7       29.61S
COFFEYVILLE    CLOUDY    67  48  50 SE5       29.61S
HUTCHINSON     CLEAR     68  53  58 SE12      29.53S
MEDICINE LODGE   N/A     69  51  52 SE10      29.52S
NEWTON         CLEAR     66  51  58 S14       29.56S
PARSONS        CLOUDY    68  47  46 S3        29.62S
WICHITA INTL   CLOUDY    68  52  56 S12       29.55F
WICHITA JABRA  CLOUDY    68  50  52 S12       29.56R
WICHITA MCCONL CLOUDY    69  49  48 S13       29.56S
WINFIELD       CLOUDY    67  49  52 S8        29.58S
$$

KSZ007>012-019>026-033>040-048>060-102>105-250200-
NORTHEAST KANSAS

CITY           SKY/WX    TMP DP  RH WIND       PRES   REMARKS
CONCORDIA      CLEAR     71  52  50 S16G28    29.48R
EMPORIA        PTCLDY    67  47  48 S14       29.58S
LAWRENCE       CLEAR     69  44  40 SE13      29.59F
MANHATTAN      CLEAR     72  48  42 S13       29.52S
MARYSVILLE     PTCLDY    70  48  46 S9        29.51F
OLATHE IND     CLEAR     67  42  40 S10       29.62S
OLATHE EXE     CLEAR     66  42  41 S7        29.62S
SALINA         CLEAR     71  52  50 S12G21    29.51R
TOPEKA BILLARD CLOUDY    69  46  43 S12       29.57F
TOPEKA FORBES  CLOUDY    70  46  42 S12       29.57F
$$



USA.gov is the U.S. government's official web portal to all federal, state and local government web resources and services.